Regional Weather Roundup
Issued by NWS Green Bay, WI

Home | Current Version | Previous Version | Graphics & Text | Print | Product List | Glossary Off
Versions: 1 2 3 4 5 6 7 8 9 10 11 12 13 14 15 16 17 18 19 20 21 22 23 24 25 26 27 28 29 30 31 32 33 34 35 36 37 38 39 40 41 42 43 44 45 46 47 48 49 50

000
ASUS43 KGRB 260100
RWRGRB

NORTH-CENTRAL AND NORTHEAST WISCONSIN REGIONAL WEATHER ROUNDUP
NATIONAL WEATHER SERVICE GREEN BAY WI
800 PM CDT SUN JUN 25 2017

WIZ005-009-010>012-018-019-260200-
NORTH CENTRAL WISCONSIN

CITY           SKY/WX    TMP DP  RH WIND       PRES   REMARKS
IRONWOOD       CLOUDY    51  48  89 W9        30.05F
MANITOWISH WTR NOT AVBL
ARBOR VITAE    NOT AVBL
EAGLE RIVER    NOT AVBL
LAND O LAKES   CLOUDY    51  50  95 NW6       30.04F
RHINELANDER    MOCLDY    53  49  86 NW9       30.05S
PHILLIPS       NOT AVBL
ANTIGO         NOT AVBL
TOMAHAWK       NOT AVBL
MERRILL        PTCLDY    56  49  75 NW9       30.07R
$$

WIZ013-073-260200-
NORTHEAST WISCONSIN

CITY           SKY/WX    TMP DP  RH WIND       PRES   REMARKS
IRON MOUNTAIN  LGT RAIN  54  50  86 N5        30.00S
MARINETTE      PTCLDY    59  55  87 MISG      30.00S
$$

WIZ017-030-035>037-045-260200-
CENTRAL WISCONSIN

CITY           SKY/WX    TMP DP  RH WIND       PRES   REMARKS
MEDFORD        NOT AVBL
WAUSAU         PTCLDY    57  47  69 NW10G23   30.05R
MOSINEE        NOT AVBL
MARSHFIELD     MOCLDY    57  50  77 NW12G21   30.08R
WISC RAPIDS    CLEAR     59  51  75 NW8       30.09R
STEVENS POINT  NOT AVBL
WAUPACA        MOCLDY    59  55  87 W7        30.06S
SHAWANO        NOT AVBL
CLINTONVILLE   CLOUDY    59  50  72 W7        30.04R
WAUTOMA        MOCLDY    58  55  90 W7        30.08S
$$

WIZ038-039-048-051-260200-
FOX VALLEY

CITY           SKY/WX    TMP DP  RH WIND       PRES   REMARKS
NWS GREEN BAY  CLOUDY    59  55  87 NW12      30.03S
APPLETON       MOCLDY    57  52  82 W10       30.04R
OSHKOSH        CLOUDY    58  52  80 VRB5      30.05S
FOND DU LAC    CLOUDY    59  51  75 W14       30.06S
$$

WIZ022-050-052-260200-
EAST CENTRAL WISCONSIN

CITY           SKY/WX    TMP DP  RH WIND       PRES   REMARKS
EPHRAIM        NOT AVBL
WASHINGTON ISL NOT AVBL
STURGEON BAY     N/A     59  55  87 SW6         N/A
MANITOWOC      NOT AVBL
SHEBOYGAN      LGT RAIN  56  54  93 NW8       30.04R
$$

LMZ563-521-522-541>543-260200-
LAKESHORE

STATION/POSITION TIME  TEMP    WIND        PRES    VSBY  WAVE
                       AIR SEA DIR/SP/G                  HT/PER
                 (UTC) (F)     (DEG/KT/KT) (MB)    (MI)  (FT/S)
SHEBOYGAN LKSHOR 0000   62     290/ 12/ 14 1016.6R
KEWAUNEE LKSHORE 0030   59     260/  6/  8 1015.8S
NORTHPORT PIER   0040   57     290/  5/  6 1015.2F
N MID LAKE BUOY  2350   58 57  210/ 12/ 14 1016.0R         2/ 5
S GREEN BAY BUOY 0030   60     280/ 12/ 14 1015.7R
CHAMBERS ISLAND  0040   58        CALM     1014.9F
MENOMINEE LKSHOR 0030           20/  7/  8 1014.5F
$$




USA.gov is the U.S. government's official web portal to all federal, state and local government web resources and services.